Other Public Products
Issued by NWS Grand Forks, ND

Home | Current Version | Previous Version | Graphics & Text | Print | Product List | Glossary On
Versions: 1 2 3 4 5 6 7 8 9 10 11 12 13 14 15 16 17 18 19 20 21 22 23 24 25 26 27 28 29 30 31 32 33 34 35 36 37 38 39 40 41 42 43 44 45 46 47 48 49 50
000
FPUS83 KFGF 231831
OPUFGF
PRAIRIE TO PINES WEATHER ROUNDUP
NATIONAL WEATHER SERVICE EASTERN NORTH DAKOTA/GRAND FORKS ND
100 PM CDT WED APR 23 2014

 **SATELLITE DATA USED TO AUGMENT SKY COVER AT AUTOMATED STATIONS**
 *****  WEATHER ACROSS EASTERN NORTH DAKOTA  *****

CITY           SKY/WX    TMP DP  RH WIND       PRES   REMARKS
GRAND FORKS    LGT RAIN  45  41  87 SE20G28   29.87F FOG
6HR MIN TEMP:  44; 6HR MAX TEMP:  49; 6HR PCP:  0.09;

GRAND FORKS AF LGT RAIN  45  45 100 SE17      29.86F
GRAND CITY NWS   N/A     45 N/A N/A SE14        N/A
BUXTON           N/A     43  43  99 SE20        N/A
DEVILS LAKE    CLOUDY    43  37  81 SE23G31   29.74F
6HR MIN TEMP:  39; 6HR MAX TEMP:  43; 6HR PCP:  0.18;

FARGO          RAIN      44  41  89 SE17G28   29.85F FOG
6HR MIN TEMP:  43; 6HR MAX TEMP:  48; 6HR PCP:  0.18;

WAHPETON ARPT  CLOUDY    41  37  87 SE29G35   29.83F
$$

 *****  WEATHER ACROSS CENTRAL AND WESTERN NORTH DAKOTA  *****

CITY           SKY/WX    TMP DP  RH WIND       PRES   REMARKS
JAMESTOWN      PTSUNNY   49  43  80 SE26G44   29.70F
6HR MIN TEMP:  44; 6HR MAX TEMP:  52; 6HR PCP: TRACE;

BISMARCK       LGT RAIN  53  42  66 SE22G32   29.56S
6HR MIN TEMP:  50; 6HR MAX TEMP:  59; 6HR PCP: TRACE;

MINOT          LGT RAIN  48  42  80 E23G32    29.56F
6HR MIN TEMP:  45; 6HR MAX TEMP:  49; 6HR PCP:  0.30;

MINOT AFB      CLOUDY    48  45  87 SE23G32   29.56F
6HR MIN TEMP:  44; 6HR MAX TEMP:  48; 6HR PCP:  0.09;

GARRISON         N/A     57  39  51 SE24G33   29.50F
6HR MIN TEMP:  46; 6HR MAX TEMP:  58; 6HR PCP:  0.07;

WILLISTON      CLOUDY    58  38  47 SE13G22   29.44S
6HR MIN TEMP:  51; 6HR MAX TEMP:  61;

DICKINSON      CLOUDY    56  40  55 W24G30    29.46R
6HR MIN TEMP:  47; 6HR MAX TEMP:  58;

HETTINGER      CLOUDY    56  43  61 W22G30    29.52R
6HR MIN TEMP:  49; 6HR MAX TEMP:  58; 6HR PCP: TRACE;

$$

 *****  OTHER OBSERVATIONS NORTHEAST NORTH DAKOTA  *****

CITY           SKY/WX    TMP DP  RH WIND       PRES   REMARKS
WALHALLA       LGT RAIN  45  45 100 SE18G30   29.87F
LANGDON        MIX PCPN  41  39  93 SE18G26   29.82F
CAVALIER       CLOUDY    45  39  81 S10G18    29.88S FOG
GRAFTON        LGT RAIN  43  41  93 SE20G28   29.88F
CANDO          MOCLDY    43  41  93 SE23G30   29.75F
FORT TOTTEN      N/A     45  42  88 SE14      29.95S
ROLLA          CLOUDY    41  41 100 SE24G31   29.74F
RUGBY          FAIR      45  45 100 SE26G35   29.66S
 ***** THE ABOVE OBSERVATIONS ARE NON NWS ARE NOT QUALITY
        CONTROLLED AND MAY MIS-REPORT RAIN FOR SNOW...
$$

 *****  OTHER OBSERVATIONS SOUTHEAST NORTH DAKOTA *****

CITY           SKY/WX    TMP DP  RH WIND       PRES   REMARKS
COOPERSTOWN    CLOUDY    43  43 100 SE26G33   29.78R
VALLEY CITY    CLOUDY    45  43  93 SE29G48   29.77S
OAKES          CLOUDY    48  39  71 SE26G38   29.71S
GWINNER        CLOUDY    45  43  93 SE24G40   29.75F
SHEYENNE NWR     N/A     42  42  99 SE21      29.95
BUFFALO          N/A     42  39  88 SE28        N/A
WYNDMERE       NOT AVBL
 ***** THE ABOVE OBSERVATIONS ARE NON NWS ARE NOT QUALITY
       CONTROLLED AND MAY MIS-REPORT RAIN FOR SNOW...
$$

  *****  WEATHER ACROSS NORTHERN MINNESOTA  *****

CITY           SKY/WX    TMP DP  RH WIND       PRES   REMARKS
FLAG ISLAND    FAIR      46  27  46 SE8       29.99F
WARROAD        FAIR      55  28  35 SE17      29.96F
ROSEAU         FAIR      57  21  24 SE21G26   29.94F
HALLOCK          N/A     54  30  40 S17       29.88S
THF RVR FALLS  CLOUDY    48  30  49 SE13      29.92R
6HR MIN TEMP:  37; 6HR MAX TEMP:  52;

HALSTAD          N/A     44  41  89 SE21        N/A
FOSSTON        LGT RAIN  45  30  57 SE17G24   29.91S
BAUDETTE       FAIR      56  25  30 SE12G24   29.98F
6HR MIN TEMP:  33; 6HR MAX TEMP:  56;

WASKISH        FAIR      55  25  30 E17G24    29.97F
CROOKSTON      RAIN      43  41  93 SE12      29.90F
$$
  *****  WEATHER ACROSS CENTRAL AND WEST MINNESOTA  *****

CITY           SKY/WX    TMP DP  RH WIND       PRES   REMARKS
BEMIDJI        FAIR      49  25  39 SE17      29.96S
PARK RAPIDS    PTSUNNY   49  27  42 SE23      29.95F
6HR MIN TEMP:  40; 6HR MAX TEMP:  51;

WADENA         LGT RAIN  39  36  87 SE22G29   29.95S
DETROIT LAKES  LGT RAIN  39  37  93 SE22G30   29.91S
MOORHEAD       HVY RAIN  45  45 100 SE20G26   29.86F
FERGUS FALLS   LGT RAIN  39  39 100 SE26G33   29.85F
ELBOW LAKE     LGT RAIN  40  38  94 SE21G28   29.90F
6HR MIN TEMP:  40; 6HR MAX TEMP:  41; 6HR PCP:  0.24;

MORRIS MN      FAIR      41  37  87 SE24G32   29.88F
STAPLES        LGT RAIN  41  34  75 SE9G22    29.99R
WHEATON        RAIN      45  41  87 SE28G36   29.85F
$$
  *****  WEATHER ELSEWHERE ACROSS MINNESOTA  *****

CITY           SKY/WX    TMP DP  RH WIND       PRES   REMARKS
DULUTH         FAIR      49  26  41 SE10      30.08F
6HR MIN TEMP:  32; 6HR MAX TEMP:  49;

INTRNTL FALLS  FAIR      52  23  32 S12G21    30.03F
6HR MIN TEMP:  28; 6HR MAX TEMP:  53;

ELY            FAIR      52  19  28 S12G17    30.07F
CLOQUET        FAIR      48  23  37 E9        30.07F
BRAINERD       FAIR      55  24  30 SE15G24   30.01F
6HR MIN TEMP:  40; 6HR MAX TEMP:  56;

HIBBING        FAIR      54  23  30 SE14G21   30.05F
6HR MIN TEMP:  28; 6HR MAX TEMP:  54;

ALEXANDRIA     RAIN      39  36  89 SE18      29.96R FOG
6HR MIN TEMP:  39; 6HR MAX TEMP:  43; 6HR PCP:  0.36;

SAINT CLOUD    LGT RAIN  44  34  67 SE12G20   30.02F
6HR MIN TEMP:  43; 6HR MAX TEMP:  47; 6HR PCP:  0.09;

MINNEAPOLIS    LGT RAIN  44  33  65 SE16      30.07F
6HR MIN TEMP:  42; 6HR MAX TEMP:  47; 6HR PCP: TRACE;

$$

  *****  WEATHER ACROSS SOUTH DAKOTA  *****

CITY           SKY/WX    TMP DP  RH WIND       PRES   REMARKS
SIOUX FALLS    PTSUNNY   59  40  49 SE26G40   29.74F
6HR MIN TEMP:  48; 6HR MAX TEMP:  59;

BROOKINGS      NOT AVBL
WATERTOWN      CLOUDY    45  35  68 SE18G36   29.73F
6HR MIN TEMP:  44; 6HR MAX TEMP:  47; 6HR PCP:  0.04;

HURON          PTSUNNY   62  37  39 SE26G39   29.62F
6HR MIN TEMP:  52; 6HR MAX TEMP:  63; 6HR PCP: TRACE;

SISSETON         N/A     42  39  89 SE24G36   29.77F
ABERDEEN       PTSUNNY   51  38  60 SE29G41   29.67S
6HR MIN TEMP:  46; 6HR MAX TEMP:  52; 6HR PCP:  0.01;

MITCHELL       PTSUNNY   66  41  40 SE29G43   29.62F
PIERRE         CLOUDY    65  41  41 SE22G29   29.50F
6HR MIN TEMP:  51; 6HR MAX TEMP:  67; 6HR PCP: TRACE;

MOBRIDGE       CLOUDY    55  40  56 SE24      29.54R
RAPID CITY     CLOUDY    64  45  49 N20       29.53R
6HR MIN TEMP:  53; 6HR MAX TEMP:  67;

$$

  *****  SOME WEATHER IN NEARBY STATES *****

CITY           SKY/WX    TMP DP  RH WIND       PRES   REMARKS
GLASGOW MT     CLOUDY    51  33  50 NW28G37   29.50F
6HR MIN TEMP:  43; 6HR MAX TEMP:  51; 6HR PCP:  0.13;

GREAT FALLS MT MOSUNNY   48  23  37 W26G38    29.66R
6HR MIN TEMP:  35; 6HR MAX TEMP:  48;

CHEYENNE WY    SUNNY     58  27  30 W23G31    29.71R
6HR MIN TEMP:  45; 6HR MAX TEMP:  58;

SCOTTSBLUFF NE MOSUNNY   66  26  22 NW33G47   29.63S
6HR MIN TEMP:  49; 6HR MAX TEMP:  67;

OMAHA NE       LGT RAIN  51  43  74 SE28G40   29.77F
6HR MIN TEMP:  49; 6HR MAX TEMP:  54; 6HR PCP:  0.08;

DES MOINES IA  RAIN      47  39  74 SE12G21   30.01S
6HR MIN TEMP:  47; 6HR MAX TEMP:  54; 6HR PCP:  0.07;

DAVENPORT IA   FAIR      52  28  39 SE15      30.12F
6HR MIN TEMP:  37; 6HR MAX TEMP:  52;

CHICAGO IL     PTSUNNY   48  24  39 NE6       30.17S
6HR MIN TEMP:  36; 6HR MAX TEMP:  49;

EAU CLAIRE WI  FAIR      50  26  39 E12       30.10F
6HR MIN TEMP:  37; 6HR MAX TEMP:  50;

LA CROSSE WI   PTSUNNY   50  29  44 S10       30.10F
6HR MIN TEMP:  37; 6HR MAX TEMP:  51;

$$

  *****  SOME NATIONAL WEATHER *****

CITY           SKY/WX    TMP DP  RH WIND       PRES   REMARKS



USA.gov is the U.S. government's official web portal to all federal, state and local government web resources and services.